Starlink 36404

operational
NORAD ID: 67664 Int'l Des: 2026-022 Owner: SPXS Country: US Constellation: starlink
LEOCIRCULARRETROGRADE

About Starlink 36404

Description loading...

Live Position

Loading 3D Globe...

Upcoming Passes

Altitude History

Altitude vs Time

uPlot chart will show altitude changes over time

Two-Line Element Set

1 67664U 26022S 26066.03863947 .00373545 00000-0 23640-2 0 9995
2 67664 97.2820 99.9148 0001830 145.1583 214.9802 15.75514579 5132
Epoch: Mar 7, 2026 • Age: 15 hours

Current Status

Altitude 347.2 km
Velocity 7.70 km/s
Sub-Earth Point -5.32°S, 76.53°E
Launch Date Feb 2, 2026
Age 32 days
Type internet

Technical Details

Classification Payload
Mass 575.00 kg
Dry Mass 530.00 kg
Total Mass 575.00 kg
Length 0.30 m
Diameter 4.10 m
Span 29.00 m
Shape Box + pan
Manufacturer SPXS
Bus Type Starlink V2MO
Phase Status In Orbit
Owner/State SPXS/US

Large Constellations

Loading constellations...